STARLINK-2571 (48401 NORAD) Tracking and Keplerian Element Data

This shows tracking and keplerian element data for the satellite.

Feedback or suggestion? Click here.




ElementValue
Catalog48401
NameSTARLINK-2571
Epoch Orbit365
Epoch Day214.91667824
Epoch Year2021
RAAN322.4256
Inclination53.0496
Eccentricity0.0001463
Argument of Perigee90.8543
Mean Anonmoly123.9996
Mean Motion15.08702594
Decay Rate-0.01138354
L11 48401U 21038BA 21214.91667824 -.01138354 00000-0 -77946-1 0 9995
L22 48401 53.0496 322.4256 0001463 90.8543 123.9996 15.08702594 3657

Live tracking and technical data element details for STARLINK-2571 (NORAD 48401). STARLINK-2571 can be tracked NOW for your location showing map with azimuth and elevation plus other details from your city location.

Track the satellite on the map from your city or location and see movement details for azimuth, elevation, latitude, longitude, range, height, and movement on the map or in text.







IsCatalogInMostPopularTable: catalog: 48401, numindb: 31
Update: records affected: 1



GetName: 48401 STARLINK-2571

Hit Count: updated at: Tue, 03 Aug 2021 20:38:39 GMT